Regional Weather Roundup
Issued by NWS

Home | Current Version | Previous Version | Text Only | Print | Product List | Glossary Off
Versions: 1 2 3 4 5 6 7 8 9 10 11 12 13 14 15 16 17 18 19 20 21 22 23 24 25 26 27 28 29 30 31 32 33 34 35 36 37 38 39 40 41 42 43 44 45 46 47 48 49 50

000
ASUS45 KBOU 292310
RWRCO

WEATHER ROUNDUP FOR COLORADO
NATIONAL WEATHER SERVICE PUEBLO CO
500 PM MDT WED JUL 29 2015

NOTE: "FAIR" INDICATES FEW OR NO CLOUDS BELOW 12000 FEET WITH NO
SIGNIFICANT WEATHER AND/OR OBSTRUCTIONS TO VISIBILITY.

COZ001>005-013-030-031-300000-
...NORTHWEST COLORADO...

CITY           SKY/WX    TMP DP  RH WIND       PRES   REMARKS
CRAIG            N/A     86  20   9 NW8       30.30F
HAYDEN         SUNNY     82  21  10 W10       30.32F
MEEKER         MOSUNNY   86  21   9 W10       30.31F
MOUNT WERNER   NOT AVBL
STEAMBOAT SPGS FAIR      80  22  11 SW3G12    30.35F
WALDEN         FAIR      73  18  12 SW7       30.44S
$$

COZ006>008-011-300000-
...WEST CENTRAL VALLEYS...

CITY           SKY/WX    TMP DP  RH WIND       PRES   REMARKS
GRAND JUNCTION MOSUNNY   89  24   9 NW5G17    30.15F
MONTROSE       MOSUNNY   89  31  12 N10       30.24F
EAGLE          MOSUNNY   84  28  13 S10G23    30.30F
RIFLE          MOSUNNY   89  26  10 W5        30.20F
DELTA          NOT AVBL
NUCLA          FAIR      90  27  10 N12       30.26F
$$

COZ017>023-064>068-300000-
...SOUTHWEST COLORADO...

CITY           SKY/WX    TMP DP  RH WIND       PRES   REMARKS
DURANGO        LGT RAIN  69  49  48 SE6       30.35S
CORTEZ         SUNNY     84  44  24 S17       30.25S
PAGOSA SPRINGS FAIR      73  44  35 NW6       30.43S
TELLURIDE      MOSUNNY   74  22  14 W8        30.51S
WOLF CREEK PAS NOT AVBL
$$

COZ009-010-012-014-032>034-037-058>063-300000-
...CENTRAL COLORADO...

CITY           SKY/WX    TMP DP  RH WIND       PRES   REMARKS
ASPEN          MOSUNNY   80  34  19 NW10G17   30.38F
BUENA VISTA    FAIR      77  44  30 S17G28    30.37S
COPPER MTN     MOSUNNY   64  21  19 W22G30    30.73S
BERTHOUD PASS  FAIR      52  43  71 MISG      30.78F
COTTONWOOD PAS MOSUNNY   72  43  35 SE10G17   30.53R
GUNNISON       MOSUNNY   81  23  12 W12       30.39S
KREMMLING      MOSUNNY   81  21  11 N15G22    30.37S
LEADVILLE      MOSUNNY   72  26  18 NW13G20   30.53S
MONARCH PASS   NOT AVBL
SALIDA         FAIR      76  51  41 SE22G31   30.42S
NIWOT RIDGE    NOT AVBL
SUNLIGHT       MOSUNNY   64  34  32 CALM      30.67F
WILKERSON PASS LGT RAIN  54  45  71 S8        30.70S
$$

COZ069>075-300000-
...SAN LUIS VALLEY/SANGRE DE CRISTO MOUNTAINS...

CITY           SKY/WX    TMP DP  RH WIND       PRES   REMARKS
ALAMOSA        CLOUDY    73  47  39 E12       30.40R
LA VETA PASS   RAIN      50  45  81 MISG      30.64R
SAGUACHE       PTSUNNY   73  46  38 S12       30.39S
$$

COZ035-036-038>040-300000-
...NORTHERN COLORADO FRONT RANGE...

CITY           SKY/WX    TMP DP  RH WIND       PRES   REMARKS
DENVER INTL AP MOSUNNY   85  46  25 SE16      30.24F
DMNS CITY PARK NOT AVBL
AURORA         MOSUNNY   83  47  29 SE13G20   30.26F
FRONT RANGE AP NOT AVBL
ERIE MUNI ARPT PTSUNNY   87  45  23 SE9       30.21S
BOULDER MUN AP FAIR      86  50  28 N8        30.22F
CENTENNIAL     MOSUNNY   80  49  33 S18G26    30.27F
BROOMFIELD     NOT AVBL
LOVELAND       PTSUNNY   88  52  29 SE13      30.19F
LONGMONT       FAIR      89  50  25 NW7       30.22F
$$

COZ041-046-047-076>085-087-088-300000-
...PIKES PEAK/PALMER DIVIDE AND SOUTHERN FOOTHILLS...

CITY           SKY/WX    TMP DP  RH WIND       PRES   REMARKS
COLO. SPRINGS  MOSUNNY   80  49  33 S16       30.34F
A. F. ACADEMY  MOSUNNY   77  49  37 SE17G23   30.35F
ELLICOTT       FAIR     N/A N/A N/A S15       30.34S
FALCON         FAIR      75  47  36 S12G17    30.40S
FORT CARSON    MOSUNNY   80  50  35 S12G20    30.31S
LIMON          SUNNY     78  46  32 S15G23    30.30F
MONUMENT HILL  NOT AVBL
TRINIDAD       CLOUDY    64  59  83 W8        30.35R
$$

COZ042>045-048>051-090-091-300000-
...NORTHEAST COLORADO...

CITY           SKY/WX    TMP DP  RH WIND       PRES   REMARKS
GREELEY ARPT   SUNNY     88  50  27 SE13      30.22S
AKRON          SUNNY     81  45  28 SE18G28   30.27F
BURLINGTON     SUNNY     79  44  28 SE8       30.27F
WRAY           FAIR      85  37  18 SE12G20   30.24S
STERLING       FAIR      86  50  28 S12G18    30.21F
HOLYOKE        FAIR      84  43  23 SE12      30.24F
FORT MORGAN    FAIR      83  46  27 S15       30.24F
$$

COZ086-089-092>099-300000-
...SOUTHEAST COLORADO...

CITY           SKY/WX    TMP DP  RH WIND       PRES   REMARKS
PUEBLO         MOSUNNY   86  48  26 E14       30.22F
LA JUNTA       MOSUNNY   86  47  25 SE15      30.22F
LAMAR          SUNNY     85  51  31 E9        30.20F
SPRINGFIELD      N/A     82  53  36 SE8       30.24F
$$



USA.gov is the U.S. government's official web portal to all federal, state and local government web resources and services.